Time,TemperatureF,DewpointF,PressureIn,WindDirection,WindDirectionDegrees,WindSpeedMPH,WindSpeedGustMPH,Humidity,HourlyPrecipIn,Conditions,Clouds,dailyrainin,SolarRadiationWatts/m^2,SoftwareType,DateUTC
2013-06-21 00:00:00,74.0,72.5,30.07,NE,38,0.0,3.0,95,0.00,,,0.12,0.00,VWS V15.00,2013-06-21 04:00:00,
2013-06-21 00:01:00,73.5,72.3,30.08,ESE,121,0.0,1.0,96,0.00,,CLR,0.12,0.00,VWS V14.01,2013-06-21 04:01:00,
2013-06-21 00:02:00,73.5,72.3,30.08,ESE,121,0.0,0.0,96,0.00,,CLR,0.00,0.00,VWS V14.01,2013-06-21 04:02:00,
2013-06-21 00:07:00,73.5,72.3,30.08,ESE,121,0.0,0.0,96,0.00,,CLR,0.00,0.00,VWS V14.01,2013-06-21 04:07:00,
2013-06-21 00:12:00,73.4,72.2,30.08,ESE,121,0.0,0.0,96,0.00,,CLR,0.00,0.00,VWS V14.01,2013-06-21 04:12:00,
2013-06-21 00:17:00,73.2,72.0,30.08,ESE,121,0.0,1.0,96,0.00,,CLR,0.00,0.00,VWS V14.01,2013-06-21 04:17:00,
2013-06-21 00:22:00,73.2,72.0,30.08,ESE,121,0.0,1.0,96,0.00,,CLR,0.00,0.00,VWS V14.01,2013-06-21 04:22:00,
2013-06-21 00:28:00,73.2,72.0,30.08,ESE,121,0.0,2.0,96,0.00,,CLR,0.00,0.00,VWS V14.01,2013-06-21 04:28:00,
2013-06-21 00:30:00,73.9,72.7,30.07,ESE,121,0.0,2.0,96,0.00,,,0.12,0.00,VWS V15.00,2013-06-21 04:30:00,
2013-06-21 00:33:00,73.1,71.9,30.08,ESE,121,0.0,0.0,96,0.00,,CLR,0.00,0.00,VWS V14.01,2013-06-21 04:33:00,
2013-06-21 00:38:00,72.9,71.7,30.08,ESE,121,0.0,0.0,96,0.00,,CLR,0.00,0.00,VWS V14.01,2013-06-21 04:38:00,
2013-06-21 00:43:00,72.9,71.7,30.08,ESE,121,0.0,0.0,96,0.00,,CLR,0.00,0.00,VWS V14.01,2013-06-21 04:43:00,
2013-06-21 00:48:00,72.9,71.7,30.08,ESE,121,0.0,0.0,96,0.00,,CLR,0.00,0.00,VWS V14.01,2013-06-21 04:48:00,
2013-06-21 00:53:00,72.9,71.7,30.08,ESE,121,0.0,0.0,96,0.00,,CLR,0.00,0.00,VWS V14.01,2013-06-21 04:53:00,
2013-06-21 00:58:00,72.8,71.9,30.07,NNE,26,2.0,2.0,97,0.00,,CLR,0.00,0.00,VWS V14.01,2013-06-21 04:58:00,
2013-06-21 01:00:00,73.5,72.3,30.08,ESE,121,0.0,1.0,96,0.00,,,0.12,0.00,VWS V15.00,2013-06-21 05:00:00,
2013-06-21 01:03:00,72.7,71.8,30.07,NNE,26,1.0,2.0,97,0.00,,CLR,0.00,0.00,VWS V14.01,2013-06-21 05:03:00,
2013-06-21 01:08:00,72.6,71.7,30.07,NNE,26,0.0,2.0,97,0.00,,CLR,0.00,0.00,VWS V14.01,2013-06-21 05:08:00,
2013-06-21 01:13:00,72.5,71.6,30.07,NNE,26,0.0,2.0,97,0.00,,CLR,0.00,0.00,VWS V14.01,2013-06-21 05:13:00,
2013-06-21 01:18:00,72.5,71.6,30.07,NNE,26,0.0,2.0,97,0.00,,CLR,0.00,0.00,VWS V14.01,2013-06-21 05:18:00,
2013-06-21 01:23:00,72.4,71.5,30.07,NNE,26,0.0,2.0,97,0.00,,CLR,0.00,0.00,VWS V14.01,2013-06-21 05:23:00,
2013-06-21 01:28:00,72.4,71.5,30.06,NW,319,0.0,2.0,97,0.00,,CLR,0.00,0.00,VWS V14.01,2013-06-21 05:28:00,
2013-06-21 01:30:00,72.3,71.4,30.06,NW,319,0.0,2.0,97,0.00,,,0.00,0.00,VWS V15.00,2013-06-21 05:30:00,
2013-06-21 01:33:00,72.4,71.5,30.06,NW,319,0.0,0.0,97,0.00,,CLR,0.00,0.00,VWS V14.01,2013-06-21 05:33:00,
2013-06-21 01:38:00,72.5,71.6,30.06,NW,319,0.0,0.0,97,0.00,,CLR,0.00,0.00,VWS V14.01,2013-06-21 05:38:00,
2013-06-21 01:43:00,72.4,71.5,30.06,NNE,31,3.0,3.0,97,0.00,,CLR,0.00,0.00,VWS V14.01,2013-06-21 05:43:00,
2013-06-21 01:48:00,72.4,71.5,30.06,NNE,32,1.0,4.0,97,0.00,,CLR,0.00,0.00,VWS V14.01,2013-06-21 05:48:00,
2013-06-21 01:53:00,72.3,71.4,30.06,NNE,32,1.0,4.0,97,0.00,,CLR,0.00,0.00,VWS V14.01,2013-06-21 05:53:00,
2013-06-21 01:58:00,72.1,71.2,30.06,NNE,32,0.0,4.0,97,0.00,,CLR,0.00,0.00,VWS V14.01,2013-06-21 05:58:00,
2013-06-21 02:00:00,72.7,71.8,30.07,NNE,26,1.0,2.0,97,0.00,,,0.00,0.00,VWS V15.00,2013-06-21 06:00:00,
2013-06-21 02:03:00,72.1,71.2,30.06,NNE,32,0.0,0.0,97,0.00,,CLR,0.00,0.00,VWS V14.01,2013-06-21 06:03:00,
2013-06-21 02:08:00,72.1,71.2,30.06,NNE,32,0.0,0.0,97,0.00,,CLR,0.00,0.00,VWS V14.01,2013-06-21 06:08:00,
2013-06-21 02:13:00,72.1,71.2,30.06,NNE,32,0.0,0.0,97,0.00,,CLR,0.00,0.00,VWS V14.01,2013-06-21 06:13:00,
2013-06-21 02:18:00,72.3,71.4,30.06,NNE,32,0.0,0.0,97,0.00,,CLR,0.00,0.00,VWS V14.01,2013-06-21 06:18:00,
2013-06-21 02:23:00,72.4,71.5,30.06,NE,56,1.0,2.0,97,0.00,,CLR,0.00,0.00,VWS V14.01,2013-06-21 06:23:00,
2013-06-21 02:28:00,72.4,71.5,30.06,NE,56,1.0,2.0,97,0.00,,CLR,0.00,0.00,VWS V14.01,2013-06-21 06:28:00,
2013-06-21 02:30:00,72.4,71.5,30.06,NE,56,1.0,2.0,97,0.00,,,0.00,0.00,VWS V15.00,2013-06-21 06:30:00,
2013-06-21 02:33:00,72.4,71.5,30.06,NE,56,0.0,2.0,97,0.00,,CLR,0.00,0.00,VWS V14.01,2013-06-21 06:33:00,
2013-06-21 02:38:00,72.4,71.5,30.06,ENE,59,2.0,2.0,97,0.00,,CLR,0.00,0.00,VWS V14.01,2013-06-21 06:38:00,
2013-06-21 02:43:00,72.8,71.9,30.06,ENE,59,0.0,2.0,97,0.00,,CLR,0.00,0.00,VWS V14.01,2013-06-21 06:43:00,
2013-06-21 02:49:00,72.9,72.0,30.06,ENE,59,0.0,2.0,97,0.00,,CLR,0.00,0.00,VWS V14.01,2013-06-21 06:49:00,
2013-06-21 02:54:00,72.6,71.7,30.06,ENE,59,0.0,2.0,97,0.00,,CLR,0.00,0.00,VWS V14.01,2013-06-21 06:54:00,
2013-06-21 02:59:00,72.6,72.0,30.06,ENE,59,0.0,2.0,98,0.00,,CLR,0.00,0.00,VWS V14.01,2013-06-21 06:59:00,
2013-06-21 03:00:00,72.6,72.0,30.06,ENE,59,1.0,2.0,98,0.00,,,0.00,0.00,VWS V15.00,2013-06-21 07:00:00,
2013-06-21 03:04:00,72.7,71.8,30.05,ENE,59,0.0,2.0,97,0.00,,CLR,0.00,0.00,VWS V14.01,2013-06-21 07:04:00,
2013-06-21 03:09:00,72.4,71.8,30.05,ENE,59,0.0,2.0,98,0.00,,CLR,0.00,0.00,VWS V14.01,2013-06-21 07:09:00,
2013-06-21 03:14:00,72.3,71.4,30.05,ENE,59,0.0,2.0,97,0.00,,CLR,0.00,0.00,VWS V14.01,2013-06-21 07:14:00,
2013-06-21 03:19:00,72.3,71.7,30.05,ENE,59,0.0,2.0,98,0.00,,CLR,0.00,0.00,VWS V14.01,2013-06-21 07:19:00,
2013-06-21 03:24:00,72.3,71.4,30.05,ENE,59,2.0,2.0,97,0.00,,CLR,0.00,0.00,VWS V14.01,2013-06-21 07:24:00,
2013-06-21 03:29:00,72.3,71.4,30.05,ENE,59,1.0,2.0,97,0.00,,CLR,0.00,0.00,VWS V14.01,2013-06-21 07:29:00,
2013-06-21 03:30:00,72.2,71.3,30.05,ENE,59,0.0,2.0,97,0.00,,,0.00,0.00,VWS V15.00,2013-06-21 07:30:00,
2013-06-21 03:34:00,72.1,71.5,30.05,ENE,59,0.0,2.0,98,0.00,,CLR,0.00,0.00,VWS V14.01,2013-06-21 07:34:00,
2013-06-21 03:39:00,72.2,71.6,30.04,ENE,59,0.0,2.0,98,0.00,,CLR,0.00,0.00,VWS V14.01,2013-06-21 07:39:00,
2013-06-21 03:44:00,72.1,71.5,30.04,ENE,59,0.0,2.0,98,0.00,,CLR,0.00,0.00,VWS V14.01,2013-06-21 07:44:00,
2013-06-21 03:49:00,71.9,71.3,30.04,ENE,59,0.0,2.0,98,0.00,,CLR,0.00,0.00,VWS V14.01,2013-06-21 07:49:00,
2013-06-21 03:54:00,71.7,71.1,30.04,ENE,59,0.0,2.0,98,0.00,,CLR,0.00,0.00,VWS V14.01,2013-06-21 07:54:00,
2013-06-21 03:59:00,71.6,71.0,30.04,ENE,59,2.0,2.0,98,0.00,,CLR,0.00,0.00,VWS V14.01,2013-06-21 07:59:00,
2013-06-21 04:00:00,71.6,71.0,30.04,ENE,59,1.0,2.0,98,0.00,,,0.00,0.00,VWS V15.00,2013-06-21 08:00:00,
2013-06-21 04:04:00,71.5,70.9,30.04,ENE,59,1.0,1.0,98,0.00,,CLR,0.00,0.00,VWS V14.01,2013-06-21 08:04:00,
2013-06-21 04:09:00,71.4,70.8,30.04,ENE,59,0.0,2.0,98,0.01,,CLR,0.01,0.00,VWS V14.01,2013-06-21 08:09:00,
2013-06-21 04:14:00,71.3,70.7,30.04,ENE,59,0.0,2.0,98,0.01,,CLR,0.01,0.00,VWS V14.01,2013-06-21 08:14:00,
2013-06-21 04:19:00,71.2,70.6,30.04,ENE,59,0.0,2.0,98,0.01,,CLR,0.01,0.00,VWS V14.01,2013-06-21 08:19:00,
2013-06-21 04:24:00,71.4,70.8,30.05,ENE,59,0.0,2.0,98,0.01,,CLR,0.01,0.00,VWS V14.01,2013-06-21 08:24:00,
2013-06-21 04:29:00,71.3,70.7,30.04,ENE,59,0.0,2.0,98,0.01,,CLR,0.01,0.00,VWS V14.01,2013-06-21 08:29:00,
2013-06-21 04:30:00,71.3,70.7,30.04,ENE,59,0.0,2.0,98,0.01,,,0.01,0.00,VWS V15.00,2013-06-21 08:30:00,
2013-06-21 04:34:00,71.2,70.6,30.04,ENE,59,0.0,1.0,98,0.01,,CLR,0.01,0.00,VWS V14.01,2013-06-21 08:34:00,
2013-06-21 04:39:00,71.0,70.4,30.04,ENE,59,0.0,1.0,98,0.01,,CLR,0.01,0.00,VWS V14.01,2013-06-21 08:39:00,
2013-06-21 04:44:00,71.0,70.4,30.04,ENE,59,1.0,1.0,98,0.01,,CLR,0.01,0.00,VWS V14.01,2013-06-21 08:44:00,
2013-06-21 04:49:00,70.9,70.3,30.04,ENE,59,0.0,1.0,98,0.01,,CLR,0.01,0.00,VWS V14.01,2013-06-21 08:49:00,
2013-06-21 04:54:00,70.8,70.2,30.04,ENE,59,0.0,1.0,98,0.01,,CLR,0.01,0.00,VWS V14.01,2013-06-21 08:54:00,
2013-06-21 04:59:00,70.7,70.1,30.04,ENE,59,0.0,2.0,98,0.01,,CLR,0.01,0.00,VWS V14.01,2013-06-21 08:59:00,
2013-06-21 05:00:00,71.6,71.0,30.04,ENE,59,1.0,2.0,98,0.00,,,0.00,0.00,VWS V15.00,2013-06-21 09:00:00,
2013-06-21 05:04:00,70.8,70.2,30.04,ENE,59,0.0,0.0,98,0.01,,CLR,0.01,0.00,VWS V14.01,2013-06-21 09:04:00,
2013-06-21 05:10:00,70.6,70.0,30.04,ENE,59,0.0,0.0,98,0.01,,CLR,0.01,0.00,VWS V14.01,2013-06-21 09:10:00,
2013-06-21 05:15:00,70.5,69.9,30.04,ENE,59,0.0,0.0,98,0.01,,CLR,0.01,0.00,VWS V14.01,2013-06-21 09:15:00,
2013-06-21 05:20:00,70.6,70.0,30.04,ENE,59,0.0,0.0,98,0.02,,CLR,0.02,0.00,VWS V14.01,2013-06-21 09:20:00,
2013-06-21 05:25:00,70.5,69.9,30.04,ENE,59,0.0,0.0,98,0.02,,CLR,0.02,0.00,VWS V14.01,2013-06-21 09:25:00,
2013-06-21 05:30:00,70.6,70.0,30.04,ENE,59,0.0,0.0,98,0.02,,CLR,0.02,0.00,VWS V14.01,2013-06-21 09:30:00,
2013-06-21 05:35:00,70.4,69.8,30.04,ENE,59,0.0,0.0,98,0.01,,CLR,0.02,0.00,VWS V14.01,2013-06-21 09:35:00,
2013-06-21 05:40:00,70.5,69.9,30.04,ENE,59,0.0,0.0,98,0.01,,CLR,0.02,0.00,VWS V14.01,2013-06-21 09:40:00,
2013-06-21 05:45:00,70.5,69.9,30.04,ENE,59,0.0,0.0,98,0.01,,CLR,0.02,0.00,VWS V14.01,2013-06-21 09:45:00,
2013-06-21 05:50:00,70.5,69.9,30.04,ENE,59,0.0,0.0,98,0.01,,CLR,0.02,0.00,VWS V14.01,2013-06-21 09:50:00,
2013-06-21 05:55:00,70.4,69.8,30.04,ENE,59,0.0,0.0,98,0.01,,CLR,0.02,0.00,VWS V14.01,2013-06-21 09:55:00,
2013-06-21 06:00:00,70.3,69.7,30.04,ENE,59,0.0,0.0,98,0.01,,CLR,0.02,0.00,VWS V14.01,2013-06-21 10:00:00,
2013-06-21 06:05:00,70.3,69.7,30.05,ENE,59,0.0,2.0,98,0.01,,CLR,0.02,0.00,VWS V14.01,2013-06-21 10:05:00,
2013-06-21 06:10:00,70.3,69.7,30.05,ENE,59,0.0,2.0,98,0.01,,CLR,0.02,0.00,VWS V14.01,2013-06-21 10:10:00,
2013-06-21 06:15:00,70.2,69.6,30.05,ENE,59,0.0,2.0,98,0.01,,CLR,0.02,0.00,VWS V14.01,2013-06-21 10:15:00,
2013-06-21 06:20:00,70.3,69.7,30.05,ENE,59,0.0,2.0,98,0.01,,SCT002,0.02,0.00,VWS V14.01,2013-06-21 10:20:00,
2013-06-21 06:25:00,70.4,69.8,30.05,ENE,59,0.0,2.0,98,0.01,,SCT002,0.02,0.00,VWS V14.01,2013-06-21 10:25:00,
2013-06-21 06:30:00,70.5,69.9,30.04,ENE,59,0.0,0.0,98,0.02,,,0.02,0.00,VWS V15.00,2013-06-21 10:30:00,
2013-06-21 06:31:00,70.3,69.7,30.05,ENE,59,0.0,2.0,98,0.01,,SCT002,0.02,0.00,VWS V14.01,2013-06-21 10:31:00,
2013-06-21 06:36:00,70.2,69.6,30.05,East,95,0.0,1.0,98,0.00,,SCT002,0.02,5.00,VWS V14.01,2013-06-21 10:36:00,
2013-06-21 06:41:00,70.1,69.5,30.05,East,95,0.0,1.0,98,0.00,,OVC002,0.02,7.00,VWS V14.01,2013-06-21 10:41:00,
2013-06-21 06:46:00,70.1,69.5,30.06,East,95,0.0,1.0,98,0.00,,OVC002,0.02,11.00,VWS V14.01,2013-06-21 10:46:00,
2013-06-21 06:51:00,70.0,69.4,30.06,East,95,0.0,1.0,98,0.00,,OVC002,0.02,12.00,VWS V14.01,2013-06-21 10:51:00,
2013-06-21 06:56:00,70.1,69.5,30.06,East,95,0.0,1.0,98,0.00,,OVC002,0.02,16.00,VWS V14.01,2013-06-21 10:56:00,
2013-06-21 07:00:00,70.3,69.7,30.06,East,95,0.0,1.0,98,0.00,,,0.02,21.00,VWS V15.00,2013-06-21 11:00:00,
2013-06-21 07:01:00,70.3,69.7,30.06,East,95,0.0,0.0,98,0.00,,,0.02,21.00,VWS V14.01,2013-06-21 11:01:00,
2013-06-21 07:06:00,70.5,69.9,30.06,East,95,0.0,0.0,98,0.00,,,0.02,23.00,VWS V14.01,2013-06-21 11:06:00,
2013-06-21 07:11:00,70.6,70.0,30.06,East,95,0.0,1.0,98,0.00,,,0.02,56.00,VWS V14.01,2013-06-21 11:11:00,
2013-06-21 07:16:00,70.7,70.1,30.06,East,95,0.0,1.0,98,0.00,,,0.02,65.00,VWS V14.01,2013-06-21 11:16:00,
2013-06-21 07:21:00,71.0,70.4,30.06,East,95,0.0,1.0,98,0.00,,,0.02,74.00,VWS V14.01,2013-06-21 11:21:00,
2013-06-21 07:26:00,71.4,70.8,30.06,East,95,0.0,1.0,98,0.00,,,0.02,84.00,VWS V14.01,2013-06-21 11:26:00,
2013-06-21 07:30:00,70.3,69.7,30.05,ENE,59,0.0,2.0,98,0.01,,,0.02,0.00,VWS V15.00,2013-06-21 11:30:00,
2013-06-21 07:31:00,71.9,71.3,30.07,East,95,0.0,0.0,98,0.00,,,0.02,97.00,VWS V14.01,2013-06-21 11:31:00,
2013-06-21 07:36:00,72.0,71.4,30.07,East,95,0.0,0.0,98,0.00,,,0.02,111.00,VWS V14.01,2013-06-21 11:36:00,
2013-06-21 07:41:00,72.3,71.7,30.07,East,95,0.0,0.0,98,0.00,,,0.02,121.00,VWS V14.01,2013-06-21 11:41:00,
2013-06-21 07:46:00,72.7,72.1,30.07,North,11,0.0,1.0,98,0.00,,,0.02,125.00,VWS V14.01,2013-06-21 11:46:00,
2013-06-21 07:51:00,72.8,72.2,30.07,North,11,0.0,1.0,98,0.00,,,0.02,134.00,VWS V14.01,2013-06-21 11:51:00,
2013-06-21 07:56:00,73.4,72.5,30.07,North,11,0.0,1.0,97,0.00,,,0.02,149.00,VWS V14.01,2013-06-21 11:56:00,
2013-06-21 08:00:00,74.0,73.1,30.08,North,11,2.0,3.0,97,0.00,,,0.02,167.00,VWS V15.00,2013-06-21 12:00:00,
2013-06-21 08:01:00,74.0,73.1,30.08,North,11,0.0,2.0,97,0.00,,,0.02,167.00,VWS V14.01,2013-06-21 12:01:00,
2013-06-21 08:06:00,74.6,73.4,30.08,North,11,1.0,3.0,96,0.00,,,0.02,188.00,VWS V14.01,2013-06-21 12:06:00,
2013-06-21 08:11:00,74.8,73.3,30.08,SW,215,1.0,3.0,95,0.00,,,0.02,207.00,VWS V14.01,2013-06-21 12:11:00,
2013-06-21 08:16:00,75.2,73.4,30.08,SSE,156,1.0,3.0,94,0.00,,,0.02,209.00,VWS V14.01,2013-06-21 12:16:00,
2013-06-21 08:21:00,75.6,73.4,30.08,SE,142,0.0,3.0,93,0.00,,,0.02,251.00,VWS V14.01,2013-06-21 12:21:00,
2013-06-21 08:26:00,76.2,73.7,30.08,SE,141,1.0,3.0,92,0.00,,,0.02,236.00,VWS V14.01,2013-06-21 12:26:00,
2013-06-21 08:30:00,76.6,73.8,30.08,SE,141,0.0,3.0,91,0.00,,,0.02,253.00,VWS V15.00,2013-06-21 12:30:00,
2013-06-21 08:31:00,76.7,73.9,30.08,SE,141,0.0,1.0,91,0.00,,,0.02,258.00,VWS V14.01,2013-06-21 12:31:00,
2013-06-21 08:36:00,77.0,73.8,30.08,NNE,24,2.0,2.0,90,0.00,,,0.02,269.00,VWS V14.01,2013-06-21 12:36:00,
2013-06-21 08:41:00,77.2,73.4,30.08,NE,40,1.0,3.0,88,0.00,,,0.02,120.00,VWS V14.01,2013-06-21 12:41:00,
2013-06-21 08:46:00,77.4,73.2,30.09,NE,38,1.0,3.0,87,0.00,,,0.02,323.00,VWS V14.01,2013-06-21 12:46:00,
2013-06-21 08:51:00,78.2,73.3,30.09,NNE,20,1.0,3.0,85,0.00,,,0.02,343.00,VWS V14.01,2013-06-21 12:51:00,
2013-06-21 08:56:00,78.5,73.3,30.09,ENE,74,2.0,5.0,84,0.00,,,0.02,357.00,VWS V14.01,2013-06-21 12:56:00,
2013-06-21 09:00:00,78.6,73.0,30.09,NE,53,1.0,5.0,83,0.00,,,0.02,378.00,VWS V15.00,2013-06-21 13:00:00,
2013-06-21 09:02:00,78.8,73.2,30.09,NE,49,2.0,3.0,83,0.00,,,0.02,378.00,VWS V14.01,2013-06-21 13:02:00,
2013-06-21 09:07:00,79.3,73.3,30.09,East,82,0.0,3.0,82,0.00,,,0.02,413.00,VWS V14.01,2013-06-21 13:07:00,
2013-06-21 09:12:00,80.0,74.0,30.09,ENE,75,2.0,4.0,82,0.00,,,0.02,302.00,VWS V14.01,2013-06-21 13:12:00,
2013-06-21 09:17:00,79.3,73.0,30.10,SE,125,3.0,5.0,81,0.00,,,0.02,218.00,VWS V14.01,2013-06-21 13:17:00,
2013-06-21 09:22:00,78.7,72.8,30.10,ESE,107,0.0,5.0,82,0.00,,,0.02,279.00,VWS V14.01,2013-06-21 13:22:00,
2013-06-21 09:27:00,79.0,73.0,30.10,ENE,74,1.0,5.0,82,0.00,,,0.02,232.00,VWS V14.01,2013-06-21 13:27:00,
2013-06-21 09:30:00,78.9,72.9,30.10,ENE,74,0.0,5.0,82,0.00,,,0.02,290.00,VWS V15.00,2013-06-21 13:30:00,
2013-06-21 09:32:00,79.0,73.0,30.10,East,81,1.0,3.0,82,0.00,,,0.02,473.00,VWS V14.01,2013-06-21 13:32:00,
2013-06-21 09:37:00,80.3,73.9,30.10,ENE,58,4.0,4.0,81,0.00,,,0.02,605.00,VWS V14.01,2013-06-21 13:37:00,
2013-06-21 09:42:00,81.2,73.7,30.10,NE,44,1.0,5.0,78,0.00,,,0.02,601.00,VWS V14.01,2013-06-21 13:42:00,
2013-06-21 09:47:00,80.7,73.2,30.10,SE,130,5.0,7.0,78,0.00,,,0.02,313.00,VWS V14.01,2013-06-21 13:47:00,
2013-06-21 09:52:00,80.2,73.8,30.10,SSE,152,1.0,7.0,81,0.00,,,0.02,577.00,VWS V14.01,2013-06-21 13:52:00,
2013-06-21 09:57:00,80.5,73.4,30.10,SSW,200,0.0,7.0,79,0.00,,,0.02,599.00,VWS V14.01,2013-06-21 13:57:00,
2013-06-21 10:00:00,80.7,73.2,30.10,ENE,77,3.0,7.0,78,0.00,,,0.02,610.00,VWS V15.00,2013-06-21 14:00:00,
2013-06-21 10:02:00,80.9,74.2,30.10,East,92,3.0,5.0,80,0.00,,SCT020,0.02,612.00,VWS V14.01,2013-06-21 14:02:00,
2013-06-21 10:08:00,81.0,73.5,30.10,ESE,107,3.0,5.0,78,0.00,,SCT020,0.02,659.00,VWS V14.01,2013-06-21 14:08:00,
2013-06-21 10:13:00,81.1,73.6,30.10,NNE,13,1.0,6.0,78,0.00,,SCT020,0.02,708.00,VWS V14.01,2013-06-21 14:13:00,
2013-06-21 10:18:00,81.7,74.6,30.10,ESE,105,2.0,6.0,79,0.00,,SCT020,0.02,687.00,VWS V14.01,2013-06-21 14:18:00,
2013-06-21 10:23:00,81.8,74.3,30.10,SW,217,0.0,6.0,78,0.00,,SCT020,0.02,710.00,VWS V14.01,2013-06-21 14:23:00,
2013-06-21 10:28:00,81.8,73.9,30.10,East,99,2.0,6.0,77,0.00,,SCT020,0.02,740.00,VWS V14.01,2013-06-21 14:28:00,
2013-06-21 10:30:00,82.0,74.5,30.10,ESE,111,3.0,6.0,78,0.00,,,0.02,729.00,VWS V15.00,2013-06-21 14:30:00,
2013-06-21 10:33:00,81.9,74.0,30.10,NNE,29,1.0,4.0,77,0.00,,SCT020,0.02,722.00,VWS V14.01,2013-06-21 14:33:00,
2013-06-21 10:38:00,82.0,73.3,30.10,NW,312,1.0,4.0,75,0.00,,SCT020,0.02,752.00,VWS V14.01,2013-06-21 14:38:00,
2013-06-21 10:43:00,82.5,74.6,30.10,NNE,24,4.0,4.0,77,0.00,,SCT020,0.02,758.00,VWS V14.01,2013-06-21 14:43:00,
2013-06-21 10:48:00,82.7,73.6,30.11,East,86,2.0,6.0,74,0.00,,SCT020,0.02,812.00,VWS V14.01,2013-06-21 14:48:00,
2013-06-21 10:53:00,82.8,74.1,30.11,ESE,118,2.0,6.0,75,0.00,,SCT020,0.02,856.00,VWS V14.01,2013-06-21 14:53:00,
2013-06-21 10:58:00,82.7,74.0,30.11,East,87,1.0,6.0,75,0.00,,SCT020,0.02,868.00,VWS V14.01,2013-06-21 14:58:00,
2013-06-21 11:00:00,82.5,73.4,30.11,East,90,2.0,6.0,74,0.00,,,0.02,255.00,VWS V15.00,2013-06-21 15:00:00,
2013-06-21 11:03:00,82.7,74.8,30.11,East,87,2.0,2.0,77,0.00,,SCT025,0.02,830.00,VWS V14.01,2013-06-21 15:03:00,
2013-06-21 11:08:00,82.8,73.7,30.11,East,88,2.0,3.0,74,0.00,,SCT025,0.02,809.00,VWS V14.01,2013-06-21 15:08:00,
2013-06-21 11:13:00,83.3,75.7,30.11,East,88,1.0,3.0,78,0.00,,SCT025,0.02,842.00,VWS V14.01,2013-06-21 15:13:00,
2013-06-21 11:18:00,83.4,73.8,30.11,ENE,65,2.0,4.0,73,0.00,,SCT025,0.02,833.00,VWS V14.01,2013-06-21 15:18:00,
2013-06-21 11:23:00,83.3,74.2,30.11,NE,34,2.0,4.0,74,0.00,,SCT025,0.02,846.00,VWS V14.01,2013-06-21 15:23:00,
2013-06-21 11:28:00,83.6,73.6,30.11,West,281,2.0,4.0,72,0.00,,SCT025,0.02,874.00,VWS V14.01,2013-06-21 15:28:00,
2013-06-21 11:30:00,83.6,73.6,30.11,SW,236,2.0,4.0,72,0.00,,,0.02,884.00,VWS V15.00,2013-06-21 15:30:00,
2013-06-21 11:33:00,83.8,73.8,30.11,South,173,3.0,4.0,72,0.00,,SCT025,0.02,904.00,VWS V14.01,2013-06-21 15:33:00,
2013-06-21 11:38:00,83.7,73.3,30.11,SW,217,2.0,5.0,71,0.00,,SCT025,0.02,963.00,VWS V14.01,2013-06-21 15:38:00,
2013-06-21 11:43:00,84.6,76.6,30.11,SE,137,4.0,7.0,77,0.00,,SCT025,0.02,911.00,VWS V14.01,2013-06-21 15:43:00,
2013-06-21 11:48:00,84.7,75.5,30.11,ESE,110,2.0,7.0,74,0.00,,SCT025,0.02,940.00,VWS V14.01,2013-06-21 15:48:00,
2013-06-21 11:53:00,85.1,75.9,30.10,ESE,112,5.0,7.0,74,0.00,,SCT025,0.02,930.00,VWS V14.01,2013-06-21 15:53:00,
2013-06-21 11:58:00,84.3,72.6,30.10,ESE,108,1.0,7.0,68,0.00,,SCT030,0.02,965.00,VWS V14.01,2013-06-21 15:58:00,
2013-06-21 12:00:00,84.3,73.5,30.10,ESE,107,1.0,7.0,70,0.00,,,0.02,960.00,VWS V15.00,2013-06-21 16:00:00,
2013-06-21 12:03:00,85.1,75.9,30.10,ESE,117,1.0,1.0,74,0.00,,SCT030,0.02,969.00,VWS V14.01,2013-06-21 16:03:00,
2013-06-21 12:08:00,85.2,74.3,30.10,East,94,1.0,3.0,70,0.00,,SCT030,0.02,1021.00,VWS V14.01,2013-06-21 16:08:00,
2013-06-21 12:13:00,84.8,73.1,30.10,SW,223,0.0,6.0,68,0.00,,SCT030,0.02,1005.00,VWS V14.01,2013-06-21 16:13:00,
2013-06-21 12:18:00,85.0,74.1,30.10,SE,143,4.0,6.0,70,0.00,,SCT030,0.02,1065.00,VWS V14.01,2013-06-21 16:18:00,
2013-06-21 12:23:00,85.2,74.7,30.10,SE,134,2.0,6.0,71,0.00,,SCT030,0.02,1097.00,VWS V14.01,2013-06-21 16:23:00,
2013-06-21 12:28:00,86.3,75.8,30.09,ESE,118,3.0,6.0,71,0.00,,SCT030,0.02,1090.00,VWS V14.01,2013-06-21 16:28:00,
2013-06-21 12:30:00,86.2,75.7,30.09,NE,53,3.0,6.0,71,0.00,,,0.02,1062.00,VWS V15.00,2013-06-21 16:30:00,
2013-06-21 12:33:00,86.4,77.1,30.09,East,93,3.0,5.0,74,0.00,,SCT030,0.02,1044.00,VWS V14.01,2013-06-21 16:33:00,
2013-06-21 12:39:00,86.1,75.2,30.09,ESE,107,1.0,7.0,70,0.00,,SCT030,0.02,1028.00,VWS V14.01,2013-06-21 16:39:00,
2013-06-21 12:44:00,86.2,76.1,30.09,SSE,153,3.0,7.0,72,0.00,,SCT030,0.02,1011.00,VWS V14.01,2013-06-21 16:44:00,
2013-06-21 12:49:00,86.4,76.3,30.09,ESE,106,4.0,7.0,72,0.00,,SCT030,0.02,1004.00,VWS V14.01,2013-06-21 16:49:00,
2013-06-21 12:54:00,86.3,74.9,30.08,East,99,5.0,8.0,69,0.00,,SCT030,0.02,1000.00,VWS V14.01,2013-06-21 16:54:00,
2013-06-21 12:59:00,86.4,73.7,30.08,East,94,3.0,8.0,66,0.00,,SCT032,0.02,1007.00,VWS V14.01,2013-06-21 16:59:00,
2013-06-21 13:00:00,86.4,74.2,30.08,ESE,111,3.0,8.0,67,0.00,,,0.02,998.00,VWS V15.00,2013-06-21 17:00:00,
2013-06-21 13:04:00,85.9,73.7,30.08,NE,48,2.0,5.0,67,0.00,,SCT032,0.02,997.00,VWS V14.01,2013-06-21 17:04:00,
2013-06-21 13:09:00,86.4,74.6,30.08,East,91,3.0,5.0,68,0.00,,SCT032,0.02,1013.00,VWS V14.01,2013-06-21 17:09:00,
2013-06-21 13:14:00,86.7,75.3,30.08,SE,126,3.0,5.0,69,0.00,,SCT032,0.02,1032.00,VWS V14.01,2013-06-21 17:14:00,
2013-06-21 13:19:00,86.9,74.6,30.08,SW,229,5.0,5.0,67,0.00,,SCT032,0.02,1013.00,VWS V14.01,2013-06-21 17:19:00,
2013-06-21 13:24:00,86.7,74.4,30.08,East,101,6.0,7.0,67,0.00,,SCT032,0.02,1005.00,VWS V14.01,2013-06-21 17:24:00,
2013-06-21 13:30:00,86.6,73.4,30.08,NE,55,0.0,7.0,65,0.00,,SCT032,0.02,1016.00,VWS V14.01,2013-06-21 17:30:00,
2013-06-21 13:35:00,87.5,76.5,30.08,East,89,2.0,3.0,70,0.00,,SCT032,0.02,1042.00,VWS V14.01,2013-06-21 17:35:00,
2013-06-21 13:40:00,87.6,74.8,30.08,SSE,157,2.0,8.0,66,0.00,,SCT032,0.02,1069.00,VWS V14.01,2013-06-21 17:40:00,
2013-06-21 13:46:00,87.4,74.2,30.08,NE,51,2.0,8.0,65,0.00,,SCT032,0.02,1049.00,VWS V14.01,2013-06-21 17:46:00,
2013-06-21 13:47:00,87.4,75.1,30.07,ENE,57,1.0,8.0,67,0.00,,SCT032,0.02,297.00,VWS V14.01,2013-06-21 17:47:00,
2013-06-21 13:52:00,87.1,73.4,30.08,ENE,74,4.0,8.0,64,0.00,,SCT032,0.02,960.00,VWS V14.01,2013-06-21 17:52:00,
2013-06-21 13:57:00,87.5,74.8,30.07,East,95,0.0,8.0,66,0.00,,BKN036,0.02,954.00,VWS V14.01,2013-06-21 17:57:00,
2013-06-21 14:00:00,86.4,74.2,30.08,ESE,111,3.0,8.0,67,0.00,,,0.02,998.00,VWS V15.00,2013-06-21 18:00:00,
2013-06-21 14:02:00,87.6,73.5,30.07,ENE,69,0.0,4.0,63,0.00,,BKN036,0.02,292.00,VWS V14.01,2013-06-21 18:02:00,
2013-06-21 14:07:00,88.1,75.8,30.07,ENE,78,1.0,5.0,67,0.00,,BKN036,0.02,979.00,VWS V14.01,2013-06-21 18:07:00,
2013-06-21 14:13:00,88.1,75.3,30.06,SW,222,2.0,7.0,66,0.00,,BKN036,0.02,928.00,VWS V14.01,2013-06-21 18:13:00,
2013-06-21 14:18:00,88.4,74.7,30.06,SW,236,1.0,7.0,64,0.00,,BKN036,0.02,944.00,VWS V14.01,2013-06-21 18:18:00,
2013-06-21 14:23:00,88.2,75.0,30.06,SSE,164,2.0,7.0,65,0.00,,BKN036,0.02,932.00,VWS V14.01,2013-06-21 18:23:00,
2013-06-21 14:25:00,88.6,76.2,30.06,ESE,107,7.0,7.0,67,0.00,,BKN036,0.02,731.00,VWS V14.01,2013-06-21 18:25:00,
2013-06-21 14:30:00,88.0,73.4,30.05,NE,54,3.0,7.0,62,0.00,,BKN036,0.02,673.00,VWS V14.01,2013-06-21 18:30:00,
2013-06-21 14:35:00,88.1,73.9,30.05,NNE,33,3.0,3.0,63,0.00,,BKN036,0.02,914.00,VWS V14.01,2013-06-21 18:35:00,
2013-06-21 14:40:00,88.8,73.6,30.05,NE,49,2.0,5.0,61,0.00,,BKN036,0.02,954.00,VWS V14.01,2013-06-21 18:40:00,
2013-06-21 14:45:00,89.2,75.0,30.05,East,92,1.0,5.0,63,0.00,,BKN036,0.02,949.00,VWS V14.01,2013-06-21 18:45:00,
2013-06-21 14:46:00,89.3,75.5,30.05,East,92,1.0,5.0,64,0.00,,BKN036,0.02,935.00,VWS V14.01,2013-06-21 18:46:00,
2013-06-21 14:51:00,89.4,74.2,30.05,East,83,0.0,5.0,61,0.00,,BKN036,0.02,882.00,VWS V14.01,2013-06-21 18:51:00,
2013-06-21 14:56:00,90.1,76.3,30.05,WNW,302,0.0,5.0,64,0.00,,BKN036,0.02,923.00,VWS V14.01,2013-06-21 18:56:00,
2013-06-21 15:00:00,87.6,74.4,30.07,NE,48,4.0,8.0,65,0.00,,,0.02,292.00,VWS V15.00,2013-06-21 19:00:00,
2013-06-21 15:01:00,90.1,73.8,30.05,SE,132,6.0,6.0,59,0.00,,SCT040,0.02,986.00,VWS V14.01,2013-06-21 19:01:00,
2013-06-21 15:06:00,89.6,73.9,30.05,SW,215,4.0,5.0,60,0.00,,SCT040,0.02,984.00,VWS V14.01,2013-06-21 19:06:00,
2013-06-21 15:11:00,89.5,75.7,30.05,SSE,151,3.0,6.0,64,0.00,,SCT040,0.02,970.00,VWS V14.01,2013-06-21 19:11:00,
2013-06-21 15:16:00,89.7,74.0,30.05,East,87,1.0,6.0,60,0.00,,SCT040,0.02,984.00,VWS V14.01,2013-06-21 19:16:00,
2013-06-21 15:20:00,89.9,75.1,30.05,East,88,3.0,6.0,62,0.00,,SCT040,0.02,946.00,VWS V14.01,2013-06-21 19:20:00,
2013-06-21 15:25:00,89.7,74.0,30.05,NW,319,2.0,6.0,60,0.00,,SCT040,0.02,974.00,VWS V14.01,2013-06-21 19:25:00,
2013-06-21 15:30:00,89.5,72.8,30.05,NW,324,0.0,6.0,58,0.00,,SCT040,0.02,221.00,VWS V14.01,2013-06-21 19:30:00,
2013-06-21 15:35:00,88.3,73.2,30.05,NE,47,1.0,4.0,61,0.00,,SCT040,0.02,181.00,VWS V14.01,2013-06-21 19:35:00,
2013-06-21 15:40:00,88.7,73.5,30.05,East,90,8.0,10.0,61,0.00,,SCT040,0.02,141.00,VWS V14.01,2013-06-21 19:40:00,
2013-06-21 15:42:00,88.2,74.0,30.05,ENE,71,1.0,10.0,63,0.00,,SCT040,0.02,120.00,VWS V14.01,2013-06-21 19:42:00,
2013-06-21 15:48:00,86.4,74.2,30.05,South,184,2.0,10.0,67,0.00,,SCT040,0.02,51.00,VWS V14.01,2013-06-21 19:48:00,
2013-06-21 15:53:00,85.4,73.2,30.05,West,280,5.0,10.0,67,0.00,,SCT040,0.02,33.00,VWS V14.01,2013-06-21 19:53:00,
2013-06-21 15:58:00,84.6,72.9,30.06,SW,224,14.0,14.0,68,0.00,,BKN050,0.02,40.00,VWS V14.01,2013-06-21 19:58:00,
2013-06-21 16:00:00,83.8,70.3,30.06,SW,223,8.0,14.0,64,0.00,,,0.02,40.00,VWS V15.00,2013-06-21 20:00:00,
2013-06-21 16:03:00,83.0,71.4,30.07,WSW,237,3.0,9.0,68,0.02,,BKN050,0.04,37.00,VWS V14.01,2013-06-21 20:03:00,
2013-06-21 16:06:00,81.5,71.6,30.09,NW,319,6.0,9.0,72,0.19,,BKN050,0.21,26.00,VWS V14.01,2013-06-21 20:06:00,
2013-06-21 16:09:00,79.6,71.4,30.11,North,5,6.0,14.0,76,0.46,,BKN050,0.48,18.00,VWS V14.01,2013-06-21 20:09:00,
2013-06-21 16:11:00,78.8,72.1,30.12,East,85,7.0,14.0,80,0.70,,BKN050,0.72,16.00,VWS V14.01,2013-06-21 20:11:00,
2013-06-21 16:13:00,77.4,71.1,30.12,NNW,342,12.0,21.0,81,0.95,,BKN050,0.97,26.00,VWS V14.01,2013-06-21 20:13:00,
2013-06-21 16:18:00,75.6,71.1,30.09,East,101,8.0,21.0,86,1.25,,BKN050,1.29,113.00,VWS V14.01,2013-06-21 20:18:00,
2013-06-21 16:24:00,74.0,70.2,30.08,East,84,5.0,21.0,88,1.40,,BKN050,1.42,132.00,VWS V14.01,2013-06-21 20:24:00,
2013-06-21 16:29:00,73.3,69.5,30.06,East,80,3.0,21.0,88,1.43,,BKN050,1.45,144.00,VWS V14.01,2013-06-21 20:29:00,
2013-06-21 16:30:00,89.4,73.7,30.05,NNW,338,0.0,6.0,60,0.00,,,0.02,214.00,VWS V15.00,2013-06-21 20:30:00,
2013-06-21 16:34:00,73.5,70.4,30.04,ESE,109,1.0,2.0,90,1.45,,BKN050,1.47,158.00,VWS V14.01,2013-06-21 20:34:00,
2013-06-21 16:39:00,73.3,70.5,30.05,ESE,110,0.0,2.0,91,1.46,,BKN050,1.48,155.00,VWS V14.01,2013-06-21 20:39:00,
2013-06-21 16:44:00,74.5,72.3,30.06,NNE,32,1.0,3.0,93,1.46,,BKN050,1.48,149.00,VWS V14.01,2013-06-21 20:44:00,
2013-06-21 16:49:00,74.8,72.3,30.07,NE,55,2.0,5.0,92,1.46,,BKN050,1.48,202.00,VWS V14.01,2013-06-21 20:49:00,
2013-06-21 16:54:00,75.3,72.5,30.08,NE,43,0.0,5.0,91,1.47,,BKN050,1.49,67.00,VWS V14.01,2013-06-21 20:54:00,
2013-06-21 16:59:00,74.9,72.1,30.08,East,84,0.0,5.0,91,1.48,,RA,1.50,39.00,VWS V14.01,2013-06-21 20:59:00,
2013-06-21 17:00:00,74.9,72.4,30.08,East,84,0.0,5.0,92,1.48,,,1.50,39.00,VWS V15.00,2013-06-21 21:00:00,
2013-06-21 17:04:00,75.0,72.5,30.08,East,84,0.0,0.0,92,1.48,,RA,1.50,44.00,VWS V14.01,2013-06-21 21:04:00,
2013-06-21 17:09:00,75.0,72.2,30.09,East,81,6.0,12.0,91,1.48,,RA,1.50,40.00,VWS V14.01,2013-06-21 21:09:00,
2013-06-21 17:14:00,74.5,72.0,30.08,ENE,62,4.0,12.0,92,1.48,,RA,1.50,60.00,VWS V14.01,2013-06-21 21:14:00,
2013-06-21 17:19:00,74.3,72.2,30.09,East,91,7.0,12.0,93,1.48,,RA,1.50,44.00,VWS V14.01,2013-06-21 21:19:00,
2013-06-21 17:24:00,74.0,71.8,30.09,ESE,104,5.0,12.0,93,1.48,,RA,1.50,44.00,VWS V14.01,2013-06-21 21:24:00,
2013-06-21 17:29:00,74.2,72.1,30.09,ESE,110,5.0,12.0,93,1.48,,RA,1.50,67.00,VWS V14.01,2013-06-21 21:29:00,
2013-06-21 17:30:00,74.2,72.4,30.09,East,88,2.0,12.0,94,1.48,,,1.50,62.00,VWS V15.00,2013-06-21 21:30:00,
2013-06-21 17:34:00,74.4,72.6,30.09,ESE,112,4.0,10.0,94,0.04,,RA,1.50,46.00,VWS V14.01,2013-06-21 21:34:00,
2013-06-21 17:39:00,74.5,72.7,30.10,ESE,109,0.0,10.0,94,0.04,,RA,1.50,32.00,VWS V14.01,2013-06-21 21:39:00,
2013-06-21 17:44:00,74.5,72.7,30.10,ESE,116,3.0,10.0,94,0.04,,RA,1.50,21.00,VWS V14.01,2013-06-21 21:44:00,
2013-06-21 17:49:00,74.8,73.0,30.11,ESE,111,7.0,10.0,94,0.05,,RA,1.51,16.00,VWS V14.01,2013-06-21 21:49:00,
2013-06-21 17:54:00,74.6,72.8,30.10,ESE,103,4.0,10.0,94,0.22,,RA,1.68,16.00,VWS V14.01,2013-06-21 21:54:00,
2013-06-21 17:59:00,74.0,72.2,30.10,East,94,9.0,10.0,94,0.37,,RA,1.83,14.00,VWS V14.01,2013-06-21 21:59:00,
2013-06-21 18:00:00,73.8,72.0,30.10,ENE,67,4.0,13.0,94,0.38,,,1.84,14.00,VWS V15.00,2013-06-21 22:00:00,
2013-06-21 18:04:00,73.5,71.7,30.10,NE,46,4.0,11.0,94,0.37,,RA,1.87,16.00,VWS V14.01,2013-06-21 22:04:00,
2013-06-21 18:09:00,73.1,71.3,30.10,North,351,7.0,11.0,94,0.40,,OVC008,1.90,21.00,VWS V14.01,2013-06-21 22:09:00,
2013-06-21 18:15:00,72.7,70.9,30.10,North,355,7.0,11.0,94,0.45,,OVC008,1.95,21.00,VWS V14.01,2013-06-21 22:15:00,
2013-06-21 18:20:00,72.8,71.0,30.10,NNW,344,4.0,11.0,94,0.46,,OVC008,1.96,23.00,VWS V14.01,2013-06-21 22:20:00,
2013-06-21 18:25:00,72.8,71.3,30.09,NNW,328,6.0,11.0,95,0.46,,OVC008,1.96,35.00,VWS V14.01,2013-06-21 22:25:00,
2013-06-21 18:30:00,72.5,71.0,30.09,North,355,4.0,11.0,95,0.46,,OVC008,1.96,54.00,VWS V14.01,2013-06-21 22:30:00,
2013-06-21 18:35:00,72.3,70.8,30.08,NNE,22,0.0,4.0,95,0.46,,OVC008,1.96,62.00,VWS V14.01,2013-06-21 22:35:00,
2013-06-21 18:40:00,72.9,71.4,30.08,NNE,21,0.0,4.0,95,0.46,,OVC008,1.96,65.00,VWS V14.01,2013-06-21 22:40:00,
2013-06-21 18:45:00,72.8,71.3,30.08,ESE,104,3.0,4.0,95,0.46,,OVC008,1.96,65.00,VWS V14.01,2013-06-21 22:45:00,
2013-06-21 18:50:00,73.1,71.6,30.07,ESE,104,2.0,4.0,95,0.46,,OVC008,1.96,60.00,VWS V14.01,2013-06-21 22:50:00,
2013-06-21 18:55:00,73.0,71.5,30.07,ESE,104,3.0,4.0,95,0.46,,OVC008,1.96,49.00,VWS V14.01,2013-06-21 22:55:00,
2013-06-21 19:00:00,73.0,71.5,30.08,ESE,104,2.0,4.0,95,0.46,,OVC008,1.96,47.00,VWS V14.01,2013-06-21 23:00:00,
2013-06-21 19:05:00,73.0,71.5,30.08,East,92,2.0,3.0,95,0.12,,OVC008,1.96,40.00,VWS V14.01,2013-06-21 23:05:00,
2013-06-21 19:10:00,73.0,71.5,30.08,East,92,0.0,3.0,95,0.12,,OVC008,1.96,33.00,VWS V14.01,2013-06-21 23:10:00,
2013-06-21 19:15:00,73.1,71.6,30.09,NE,44,2.0,3.0,95,0.12,,OVC008,1.96,30.00,VWS V14.01,2013-06-21 23:15:00,
2013-06-21 19:20:00,73.3,71.8,30.09,NE,36,4.0,5.0,95,0.12,,OVC008,1.96,28.00,VWS V14.01,2013-06-21 23:20:00,
2013-06-21 19:25:00,73.0,71.5,30.09,NNE,29,4.0,5.0,95,0.12,,OVC008,1.96,26.00,VWS V14.01,2013-06-21 23:25:00,
2013-06-21 19:30:00,73.1,71.6,30.09,ESE,108,0.0,5.0,95,0.12,,OVC008,1.96,25.00,VWS V14.01,2013-06-21 23:30:00,
2013-06-21 19:35:00,73.0,71.5,30.10,NNE,24,1.0,4.0,95,0.00,,OVC008,1.96,23.00,VWS V14.01,2013-06-21 23:35:00,
2013-06-21 19:40:00,73.0,71.8,30.10,North,355,3.0,4.0,96,0.00,,OVC008,1.96,18.00,VWS V14.01,2013-06-21 23:40:00,
2013-06-21 19:45:00,73.2,72.0,30.10,NNW,327,1.0,4.0,96,0.00,,OVC008,1.96,16.00,VWS V14.01,2013-06-21 23:45:00,
2013-06-21 19:50:00,73.2,72.0,30.09,WNW,300,0.0,4.0,96,0.00,,OVC008,1.96,14.00,VWS V14.01,2013-06-21 23:50:00,
2013-06-21 19:55:00,73.0,71.8,30.09,WNW,294,2.0,4.0,96,0.00,,OVC008,1.96,16.00,VWS V14.01,2013-06-21 23:55:00,
2013-06-21 20:00:00,72.9,71.7,30.09,WNW,292,2.0,4.0,96,0.00,,CLR,1.96,18.00,VWS V14.01,2013-06-22 00:00:00,
2013-06-21 20:05:00,72.9,71.7,30.09,WNW,292,0.0,3.0,96,0.00,,CLR,1.96,18.00,VWS V14.01,2013-06-22 00:05:00,
2013-06-21 20:10:00,72.9,71.7,30.09,WNW,292,0.0,3.0,96,0.00,,CLR,1.96,16.00,VWS V14.01,2013-06-22 00:10:00,
2013-06-21 20:15:00,73.1,71.9,30.09,North,360,3.0,3.0,96,0.00,,CLR,1.96,14.00,VWS V14.01,2013-06-22 00:15:00,
2013-06-21 20:20:00,73.1,71.9,30.09,North,5,3.0,3.0,96,0.00,,FEW004,1.96,11.00,VWS V14.01,2013-06-22 00:20:00,
2013-06-21 20:25:00,73.1,71.9,30.09,NE,40,2.0,4.0,96,0.00,,FEW004,1.96,5.00,VWS V14.01,2013-06-22 00:25:00,
2013-06-21 20:30:00,73.1,71.6,30.09,East,95,1.0,5.0,95,0.12,,,1.96,25.00,VWS V15.00,2013-06-22 00:30:00,
2013-06-21 20:31:00,72.9,71.7,30.08,NE,40,0.0,4.0,96,0.00,,FEW004,1.96,0.00,VWS V14.01,2013-06-22 00:31:00,
2013-06-21 20:36:00,72.8,71.6,30.09,NE,40,0.0,0.0,96,0.00,,FEW004,1.96,0.00,VWS V14.01,2013-06-22 00:36:00,
2013-06-21 20:41:00,72.6,71.4,30.09,NE,40,0.0,0.0,96,0.00,,CLR,1.96,0.00,VWS V14.01,2013-06-22 00:41:00,
2013-06-21 20:46:00,72.4,71.2,30.09,NE,40,0.0,0.0,96,0.00,,CLR,1.96,0.00,VWS V14.01,2013-06-22 00:46:00,
2013-06-21 20:51:00,72.3,71.1,30.08,NE,40,0.0,0.0,96,0.00,,CLR,1.96,0.00,VWS V14.01,2013-06-22 00:51:00,
2013-06-21 20:56:00,72.4,71.2,30.08,NE,45,0.0,0.0,96,0.00,,CLR,1.96,0.00,VWS V14.01,2013-06-22 00:56:00,
2013-06-21 21:00:00,72.9,71.7,30.09,WNW,292,2.0,4.0,96,0.00,,,1.96,18.00,VWS V15.00,2013-06-22 01:00:00,
2013-06-21 21:01:00,72.6,71.4,30.07,NE,46,0.0,0.0,96,0.00,,CLR,1.96,0.00,VWS V14.01,2013-06-22 01:01:00,
2013-06-21 21:06:00,72.4,71.2,30.07,ENE,67,3.0,3.0,96,0.00,,CLR,1.96,0.00,VWS V14.01,2013-06-22 01:06:00,
2013-06-21 21:11:00,72.3,71.1,30.07,ENE,69,1.0,3.0,96,0.00,,CLR,1.96,0.00,VWS V14.01,2013-06-22 01:11:00,
2013-06-21 21:16:00,72.4,71.2,30.08,ENE,69,1.0,3.0,96,0.00,,CLR,1.96,0.00,VWS V14.01,2013-06-22 01:16:00,
2013-06-21 21:21:00,72.4,71.2,30.08,ENE,69,0.0,3.0,96,0.00,,CLR,1.96,0.00,VWS V14.01,2013-06-22 01:21:00,
2013-06-21 21:26:00,72.4,71.2,30.08,East,91,3.0,5.0,96,0.00,,CLR,1.96,0.00,VWS V14.01,2013-06-22 01:26:00,
2013-06-21 21:30:00,72.4,71.2,30.08,East,90,1.0,5.0,96,0.00,,,1.96,0.00,VWS V15.00,2013-06-22 01:30:00,
2013-06-21 21:31:00,72.3,71.1,30.08,East,90,0.0,1.0,96,0.00,,CLR,1.96,0.00,VWS V14.01,2013-06-22 01:31:00,
2013-06-21 21:36:00,72.2,71.0,30.08,East,82,0.0,3.0,96,0.00,,CLR,1.96,0.00,VWS V14.01,2013-06-22 01:36:00,
2013-06-21 21:41:00,72.2,71.0,30.08,East,82,0.0,3.0,96,0.00,,CLR,1.96,0.00,VWS V14.01,2013-06-22 01:41:00,
2013-06-21 21:46:00,72.2,71.0,30.08,East,81,2.0,3.0,96,0.00,,CLR,1.96,0.00,VWS V14.01,2013-06-22 01:46:00,
2013-06-21 21:51:00,72.3,71.1,30.09,NE,34,3.0,3.0,96,0.00,,CLR,1.96,0.00,VWS V14.01,2013-06-22 01:51:00,
2013-06-21 21:56:00,72.2,71.0,30.09,NE,44,0.0,3.0,96,0.00,,CLR,1.96,0.00,VWS V14.01,2013-06-22 01:56:00,
2013-06-21 22:00:00,72.6,71.4,30.08,NE,45,0.0,0.0,96,0.00,,,1.96,0.00,VWS V15.00,2013-06-22 02:00:00,
2013-06-21 22:01:00,72.2,71.0,30.09,NE,46,0.0,0.0,96,0.00,,SCT005,1.96,0.00,VWS V14.01,2013-06-22 02:01:00,
2013-06-21 22:06:00,72.2,71.0,30.09,NE,46,1.0,1.0,96,0.00,,SCT005,1.96,0.00,VWS V14.01,2013-06-22 02:06:00,
2013-06-21 22:11:00,72.2,71.0,30.09,ENE,63,2.0,3.0,96,0.00,,SCT005,1.96,0.00,VWS V14.01,2013-06-22 02:11:00,
2013-06-21 22:16:00,72.4,71.5,30.09,East,86,2.0,5.0,97,0.00,,SCT005,1.96,0.00,VWS V14.01,2013-06-22 02:16:00,
2013-06-21 22:21:00,72.2,71.0,30.10,East,93,1.0,5.0,96,0.00,,BKN004,1.96,0.00,VWS V14.01,2013-06-22 02:21:00,
2013-06-21 22:26:00,72.0,70.8,30.10,ENE,78,4.0,5.0,96,0.00,,BKN004,1.96,0.00,VWS V14.01,2013-06-22 02:26:00,
2013-06-21 22:30:00,71.9,71.0,30.10,East,97,1.0,5.0,97,0.00,,,1.96,0.00,VWS V15.00,2013-06-22 02:30:00,
2013-06-21 22:31:00,71.9,71.0,30.10,East,89,3.0,3.0,97,0.00,,BKN004,1.96,0.00,VWS V14.01,2013-06-22 02:31:00,
2013-06-21 22:36:00,71.8,70.9,30.10,East,88,2.0,5.0,97,0.00,,BKN004,1.96,0.00,VWS V14.01,2013-06-22 02:36:00,
2013-06-21 22:41:00,71.7,70.8,30.09,East,81,3.0,5.0,97,0.00,,BKN003,1.96,0.00,VWS V14.01,2013-06-22 02:41:00,
2013-06-21 22:46:00,71.7,70.8,30.10,East,94,0.0,5.0,97,0.00,,BKN003,1.96,0.00,VWS V14.01,2013-06-22 02:46:00,
2013-06-21 22:51:00,71.8,70.9,30.09,ESE,112,2.0,5.0,97,0.00,,BKN003,1.96,0.00,VWS V14.01,2013-06-22 02:51:00,
2013-06-21 22:56:00,71.7,70.8,30.09,East,79,3.0,5.0,97,0.00,,BKN003,1.96,0.00,VWS V14.01,2013-06-22 02:56:00,
2013-06-21 23:00:00,71.6,70.4,30.09,East,84,3.0,5.0,96,0.00,,,1.96,0.00,VWS V15.00,2013-06-22 03:00:00,
2013-06-21 23:01:00,71.6,70.4,30.09,ENE,67,3.0,3.0,96,0.00,,OVC004,1.96,0.00,VWS V14.01,2013-06-22 03:01:00,
2013-06-21 23:06:00,71.5,70.3,30.09,East,89,2.0,3.0,96,0.00,,OVC004,1.96,0.00,VWS V14.01,2013-06-22 03:06:00,
2013-06-21 23:12:00,71.8,70.9,30.09,ESE,113,2.0,3.0,97,0.00,,OVC004,1.96,0.00,VWS V14.01,2013-06-22 03:12:00,
2013-06-21 23:17:00,71.9,71.0,30.10,ESE,109,0.0,3.0,97,0.00,,OVC004,1.96,0.00,VWS V14.01,2013-06-22 03:17:00,
2013-06-21 23:22:00,71.7,70.8,30.10,ESE,109,0.0,3.0,97,0.00,,OVC004,1.96,0.00,VWS V14.01,2013-06-22 03:22:00,
2013-06-21 23:27:00,71.6,70.4,30.10,North,9,1.0,3.0,96,0.00,,OVC004,1.96,0.00,VWS V14.01,2013-06-22 03:27:00,
2013-06-21 23:30:00,71.5,70.3,30.10,North,9,2.0,3.0,96,0.00,,,1.96,0.00,VWS V15.00,2013-06-22 03:30:00,
2013-06-21 23:32:00,71.5,70.3,30.10,North,9,2.0,2.0,96,0.00,,OVC004,1.96,0.00,VWS V14.01,2013-06-22 03:32:00,
2013-06-21 23:37:00,71.5,70.3,30.10,North,5,0.0,2.0,96,0.00,,OVC004,1.96,0.00,VWS V14.01,2013-06-22 03:37:00,
2013-06-21 23:42:00,71.5,70.3,30.10,North,9,0.0,2.0,96,0.00,,BKN004,1.96,0.00,VWS V14.01,2013-06-22 03:42:00,
2013-06-21 23:47:00,71.4,70.2,30.10,North,9,0.0,2.0,96,0.00,,BKN004,1.96,0.00,VWS V14.01,2013-06-22 03:47:00,
2013-06-21 23:52:00,71.4,70.2,30.10,North,9,0.0,2.0,96,0.00,,BKN004,1.96,0.00,VWS V14.01,2013-06-22 03:52:00,
2013-06-21 23:57:00,71.2,70.0,30.10,NNE,17,0.0,2.0,96,0.00,,BKN004,1.96,0.00,VWS V14.01,2013-06-22 03:57:00,